Location: Unspecified
(50.7693°N, 0.0000°E)
Time: 14:00:52
(UTC+00:00)

A-11 Canister half - Pass Details

Date: 24 June 2019
Orbit: 1526 x 1683 km, 47.3° (Epoch: 15 July)

Event Time Altitude Azimuth Distance (km) Brightness Sun altitude
Rises 04:05:05 0° 224° (SW) 4,758 10.9 1.4°
Reaches altitude 10° 04:08:20 10° 219° (SW) 3,755 10.4 1.8°
Maximum altitude 04:17:10 47° 150° (SSE) 1,966 9.7 2.9°
Drops below altitude 10° 04:25:52 10° 81° (E) 3,698 12.5 4.1°
Sets 04:29:02 0° 75° (ENE) 4,680 13.3 4.5°
